Location: Kershaw
(34.5481°N, 80.5823°W)
Time: 15:28:57
(UTC+00:00)

Courier 1B Rocket - Pass Details

Date: 03 October 2022
Orbit: 920 x 1202 km, 28.2° (Epoch: 08 December)

Event Time Altitude Azimuth Distance (km) Brightness Sun altitude
Rises 05:26:11 0° 265° (W) 3,556 - -59.2°
Reaches altitude 10° 05:29:25 10° 250° (WSW) 2,603 - -59.1°
Maximum altitude 05:33:55 21° 203° (SSW) 1,938 - -59.0°
Drops below altitude 10° 05:38:28 10° 156° (SSE) 2,630 - -58.8°
Sets 05:41:47 0° 141° (SE) 3,604 - -58.6°
